Date String (YYYY-MM-DD hh:mm:ss) UTC,Instrument flags,absolute air pressure of the measurement (hPa),sample flow rate (lpm),inlet stack bypass flow (lpm),air temperature of the measurement (°C),ambient temperature measured by the external sensor (°C),aerosol sample conditioner tube jacket temperature (°C),OPC LED temperature (°C),internal box temperature (°C),relative humidity of the measurement (%),span deviation,mass concentration of particles derived from Lorenz-Mie calculation of OPC scattering (μg/m³),mass concentration of particles derived from Lorenz-Mie calculation of OPC scattering (μg/m³),mass concentration of particles derived from Lorenz-Mie calculation of OPC scattering (μg/m³)
DateTimeUTC,F1_M11,P_M11,Q1_M11,Q2_M11,T1_M11,T2_M11,T3_M11,T4_M11,T5_M11,U1_M11,ZSPAN_M11,X0_M11,X2_M11,X1_M11
2024-04-26 13:00:00,SystemResetWarning,0815.2,5.00,000.00,024.7,023.9,000.0,033.3,026.6,018.7,0000.0,0004.84,0002.44,0001.67
2024-04-26 13:01:00,SystemResetWarning,0815.2,5.01,000.00,024.7,023.9,000.0,033.3,026.6,018.7,0000.0,0004.18,0002.45,0001.66
2024-04-26 13:02:00,SystemResetWarning,0815.3,5.01,000.00,024.7,023.9,000.0,033.3,026.5,019.3,0000.0,0004.77,0002.41,0001.64
2024-04-26 13:03:00,SystemResetWarning,0815.3,4.99,000.00,024.7,023.9,000.0,033.2,026.6,021.8,0000.0,0005.51,0002.42,0001.63
2024-04-26 13:04:00,SystemResetWarning,0815.3,5.00,000.00,024.7,023.9,000.0,033.2,026.6,021.7,0000.0,0006.13,0002.37,0001.64
2024-04-26 13:05:00,SystemResetWarning,0815.3,5.02,000.00,024.7,023.9,000.0,033.2,026.6,018.1,0000.0,0006.42,0002.42,0001.67
2024-04-26 13:06:00,SystemResetWarning,0815.4,4.99,000.00,024.7,024.0,000.0,033.2,026.6,018.1,0000.0,0007.79,0002.50,0001.69
2024-04-26 13:07:00,SystemResetWarning,0815.4,4.99,000.00,024.7,024.0,000.0,033.2,026.6,019.1,0000.0,0008.00,0002.51,0001.71
2024-04-26 13:08:00,SystemResetWarning,0815.4,4.99,000.00,024.7,024.0,000.0,033.3,026.6,018.2,0000.0,0007.99,0002.50,0001.72
2024-04-26 13:09:00,SystemResetWarning,0815.5,5.02,000.00,024.8,024.0,000.0,033.3,026.6,019.2,0000.0,0007.98,0002.52,0001.73
2024-04-26 13:10:00,SystemResetWarning,0815.5,5.01,000.00,024.8,024.0,000.0,033.3,026.6,019.2,0000.0,0007.99,0002.55,0001.73
2024-04-26 13:11:00,SystemResetWarning,0815.5,4.99,000.00,024.8,024.0,000.0,033.3,026.6,019.7,0000.0,0007.89,0002.49,0001.73
2024-04-26 13:12:00,SystemResetWarning,0815.5,5.00,000.00,024.8,024.0,000.0,033.3,026.6,019.6,0000.0,0007.93,0002.50,0001.75
2024-04-26 13:13:00,SystemResetWarning,0815.5,5.00,000.00,024.8,024.1,000.0,033.3,026.7,019.4,0000.0,0007.68,0002.53,0001.77
2024-04-26 13:14:00,SystemResetWarning,0815.4,5.01,000.00,024.8,024.1,000.0,033.3,026.7,019.5,0000.0,0007.44,0002.54,0001.78
2024-04-26 13:15:00,SystemResetWarning,0815.3,5.01,000.00,024.8,024.1,000.0,033.3,026.7,018.6,0000.0,0006.94,0002.54,0001.78
2024-04-26 13:16:00,SystemResetWarning,0815.3,4.98,000.00,024.8,024.1,000.0,033.3,026.7,017.2,0000.0,0006.54,0002.45,0001.75
2024-04-26 13:17:00,SystemResetWarning,0815.4,5.00,000.00,024.8,024.1,000.0,033.3,026.7,015.5,0000.0,0004.91,0002.42,0001.74
2024-04-26 13:18:00,SystemResetWarning,0815.6,5.02,000.00,024.8,024.1,000.0,033.3,026.6,015.9,0000.0,0004.45,0002.41,0001.73
2024-04-26 13:19:00,SystemResetWarning,0815.6,5.00,000.00,024.8,024.1,000.0,033.3,026.7,016.3,0000.0,0004.72,0002.43,0001.72
2024-04-26 13:20:00,SystemResetWarning,0815.6,4.99,000.00,024.8,024.1,000.0,033.3,026.7,016.6,0000.0,0005.00,0002.45,0001.71
2024-04-26 13:21:00,SystemResetWarning,0815.6,5.01,000.00,024.8,024.0,000.0,033.3,026.6,017.5,0000.0,0005.45,0002.44,0001.71
2024-04-26 13:22:00,SystemResetWarning,0815.6,5.01,000.00,024.8,024.0,000.0,033.3,026.6,019.2,0000.0,0006.23,0002.52,0001.72
2024-04-26 13:23:00,SystemResetWarning,0815.6,4.98,000.00,024.8,024.0,000.0,033.3,026.6,021.0,0000.0,0006.40,0002.49,0001.72
2024-04-26 13:24:00,SystemResetWarning,0815.5,5.00,000.00,024.8,024.0,000.0,033.3,026.6,020.2,0000.0,0007.82,0002.46,0001.71
2024-04-26 13:25:00,SystemResetWarning,0815.6,5.01,000.00,024.8,024.0,000.0,033.3,026.6,017.0,0000.0,0009.11,0002.43,0001.71
2024-04-26 13:26:00,SystemResetWarning,0815.6,5.01,000.00,024.8,024.0,000.0,033.3,026.6,016.9,0000.0,0009.19,0002.44,0001.71
2024-04-26 13:27:00,SystemResetWarning,0815.6,4.99,000.00,024.8,024.0,000.0,033.3,026.6,017.5,0000.0,0009.48,0002.51,0001.71
2024-04-26 13:28:00,SystemResetWarning,0815.4,5.00,000.00,024.8,024.0,000.0,033.3,026.6,017.5,0000.0,0009.49,0002.49,0001.72
2024-04-26 13:29:00,SystemResetWarning,0815.6,5.00,000.00,024.8,024.1,000.0,033.3,026.6,017.2,0000.0,0009.50,0002.47,0001.73
2024-04-26 13:30:00,SystemResetWarning,0815.5,5.00,000.00,024.8,024.1,000.0,033.3,026.6,019.9,0000.0,0009.47,0002.46,0001.74
2024-04-26 13:31:00,SystemResetWarning,0815.5,5.00,000.00,024.8,024.1,000.0,033.3,026.7,020.9,0000.0,0009.38,0002.45,0001.76
2024-04-26 13:32:00,SystemResetWarning,0815.7,5.00,000.00,024.9,024.1,000.0,033.3,026.7,016.1,0000.0,0009.53,0002.44,0001.77
2024-04-26 13:33:00,SystemResetWarning,0815.6,5.00,000.00,024.9,024.1,000.0,033.3,026.7,016.1,0000.0,0009.23,0002.46,0001.78
2024-04-26 13:34:00,SystemResetWarning,0815.6,5.00,000.00,024.9,024.1,000.0,033.3,026.7,016.9,0000.0,0009.15,0002.53,0001.78
2024-04-26 13:35:00,SystemResetWarning,0815.7,5.01,000.00,024.9,024.1,000.0,033.3,026.7,016.5,0000.0,0007.64,0002.54,0001.78
2024-04-26 13:36:00,SystemResetWarning,0815.6,5.01,000.00,024.9,024.1,000.0,033.3,026.7,016.3,0000.0,0005.66,0002.52,0001.76
2024-04-26 13:37:00,SystemResetWarning,0815.6,4.99,000.00,024.9,024.1,000.0,033.3,026.7,016.2,0000.0,0005.44,0002.50,0001.75
2024-04-26 13:38:00,SystemResetWarning,0815.6,4.99,000.00,024.9,024.1,000.0,033.3,026.7,016.1,0000.0,0005.08,0002.49,0001.75
2024-04-26 13:39:00,SystemResetWarning,0815.6,4.99,000.00,024.9,024.1,000.0,033.3,026.7,014.8,0000.0,0005.01,0002.50,0001.74
2024-04-26 13:40:00,SystemResetWarning,0815.6,5.00,000.00,024.9,024.1,000.0,033.3,026.7,015.1,0000.0,0005.78,0002.49,0001.73
2024-04-26 13:41:00,SystemResetWarning,0815.6,5.01,000.00,024.9,024.1,000.0,033.3,026.7,017.8,0000.0,0006.08,0002.45,0001.70
2024-04-26 13:42:00,SystemResetWarning,0815.6,5.01,000.00,024.9,024.1,000.0,033.3,026.7,020.5,0000.0,0005.99,0002.45,0001.69
2024-04-26 13:43:00,SystemResetWarning,0815.6,5.00,000.00,024.9,024.1,000.0,033.3,026.7,020.4,0000.0,0005.51,0002.45,0001.68
2024-04-26 13:44:00,SystemResetWarning,0815.6,5.00,000.00,024.9,024.1,000.0,033.3,026.7,020.5,0000.0,0005.13,0002.43,0001.67
2024-04-26 13:45:00,SystemResetWarning,0815.7,4.99,000.00,024.9,024.1,000.0,033.4,026.7,021.3,0000.0,0005.43,0002.34,0001.65
2024-04-26 13:46:00,SystemResetWarning,0815.8,4.99,000.00,024.9,024.1,000.0,033.4,026.7,019.7,0000.0,0006.41,0002.35,0001.64
2024-04-26 13:47:00,SystemResetWarning,0815.8,5.00,000.00,024.9,024.1,000.0,033.4,026.7,018.8,0000.0,0006.36,0002.32,0001.63
2024-04-26 13:48:00,SystemResetWarning,0815.9,5.02,000.00,024.9,024.1,000.0,033.4,026.7,018.6,0000.0,0006.69,0002.34,0001.62
2024-04-26 13:49:00,SystemResetWarning,0815.8,5.00,000.00,024.9,024.2,000.0,033.4,026.8,019.1,0000.0,0007.26,0002.31,0001.61
2024-04-26 13:50:00,SystemResetWarning,0815.9,5.00,000.00,024.9,024.2,000.0,033.4,026.8,018.1,0000.0,0007.44,0002.27,0001.61
2024-04-26 13:51:00,SystemResetWarning,0815.9,4.99,000.00,025.0,024.2,000.0,033.4,026.8,019.3,0000.0,0007.23,0002.21,0001.58
2024-04-26 13:52:00,SystemResetWarning,0815.8,5.00,000.00,025.0,024.2,000.0,033.4,026.8,018.5,0000.0,0006.30,0002.14,0001.56
2024-04-26 13:53:00,SystemResetWarning,0815.7,5.00,000.00,025.0,024.3,000.0,033.4,026.8,015.7,0000.0,0007.35,0002.13,0001.55
2024-04-26 13:54:00,SystemResetWarning,0815.8,5.00,000.00,025.0,024.2,000.0,033.4,026.8,015.6,0000.0,0007.50,0002.13,0001.53
2024-04-26 13:55:00,SystemResetWarning,0815.9,5.00,000.00,025.0,024.2,000.0,033.4,026.8,017.2,0000.0,0007.88,0002.14,0001.52
2024-04-26 13:56:00,SystemResetWarning,0815.9,5.00,000.00,025.0,024.2,000.0,033.4,026.8,018.9,0000.0,0008.16,0002.16,0001.51
2024-04-26 13:57:00,SystemResetWarning,0815.9,5.00,000.00,025.0,024.2,000.0,033.4,026.8,020.3,0000.0,0007.48,0002.11,0001.50
2024-04-26 13:58:00,SystemResetWarning,0816.0,5.00,000.00,025.0,024.2,000.0,033.4,026.8,019.9,0000.0,0007.45,0002.08,0001.49
2024-04-26 13:59:00,SystemResetWarning,0815.9,5.00,000.00,025.0,024.2,000.0,033.4,026.8,018.2,0000.0,0007.29,0002.07,0001.49
